TimeCST,TemperatureF,Dew PointF,Humidity,Sea Level PressureIn,VisibilityMPH,Wind Direction,Wind SpeedMPH,Gust SpeedMPH,PrecipitationIn,Events,Conditions,WindDirDegrees,DateUTC
12:35 AM,26.6,23.0,86,30.47,10.0,Calm,Calm,-,N/A,,Clear,0,2013-01-18 06:35:00
12:55 AM,26.6,21.2,80,30.47,10.0,South,3.5,-,N/A,,Clear,180,2013-01-18 06:55:00
1:15 AM,26.6,21.2,80,30.47,10.0,SE,3.5,-,N/A,,Clear,140,2013-01-18 07:15:00
1:35 AM,24.8,19.4,80,30.48,10.0,SE,3.5,-,N/A,,Clear,140,2013-01-18 07:35:00
1:55 AM,24.8,19.4,80,30.48,10.0,SSE,4.6,-,N/A,,Clear,160,2013-01-18 07:55:00
2:15 AM,26.6,21.2,80,30.48,10.0,SSE,4.6,-,N/A,,Clear,150,2013-01-18 08:15:00
2:35 AM,26.6,21.2,80,30.49,10.0,SSE,4.6,-,N/A,,Clear,150,2013-01-18 08:35:00
2:55 AM,24.8,19.4,80,30.48,10.0,SSE,3.5,-,N/A,,Clear,160,2013-01-18 08:55:00
3:15 AM,24.8,21.2,86,30.47,10.0,Calm,Calm,-,N/A,,Clear,0,2013-01-18 09:15:00
3:55 AM,26.6,23.0,86,30.46,10.0,Calm,Calm,-,N/A,,Clear,0,2013-01-18 09:55:00
4:15 AM,24.8,19.4,80,30.46,10.0,SSE,3.5,-,N/A,,Clear,150,2013-01-18 10:15:00
4:35 AM,23.0,19.4,86,30.45,10.0,SSE,5.8,-,N/A,,Clear,150,2013-01-18 10:35:00
4:55 AM,24.8,21.2,86,30.44,10.0,SE,5.8,-,N/A,,Clear,130,2013-01-18 10:55:00
5:15 AM,24.8,21.2,86,30.44,10.0,SE,6.9,-,N/A,,Clear,140,2013-01-18 11:15:00
5:35 AM,24.8,21.2,86,30.44,10.0,SSE,6.9,-,N/A,,Clear,150,2013-01-18 11:35:00
5:55 AM,24.8,21.2,86,30.43,10.0,SSE,4.6,-,N/A,,Clear,150,2013-01-18 11:55:00
5:56 AM,24.8,21.2,86,30.43,10.0,SSE,4.6,-,N/A,,Clear,160,2013-01-18 11:56:00
6:15 AM,24.8,19.4,80,30.43,10.0,SSE,4.6,-,N/A,,Clear,150,2013-01-18 12:15:00
6:35 AM,24.8,21.2,86,30.42,10.0,SE,5.8,-,N/A,,Clear,140,2013-01-18 12:35:00
6:56 AM,23.0,19.4,86,30.42,10.0,SE,5.8,-,N/A,,Clear,140,2013-01-18 12:56:00
7:15 AM,24.8,21.2,86,30.42,10.0,SSE,4.6,-,N/A,,Clear,150,2013-01-18 13:15:00
7:55 AM,26.6,21.2,80,30.41,10.0,SSE,4.6,-,N/A,,Clear,150,2013-01-18 13:55:00
8:35 AM,30.2,26.6,86,30.42,10.0,South,5.8,-,N/A,,Clear,170,2013-01-18 14:35:00
8:55 AM,33.8,26.6,75,30.42,10.0,South,6.9,-,N/A,,Clear,180,2013-01-18 14:55:00
9:16 AM,35.6,26.6,70,30.42,10.0,South,8.1,-,N/A,,Clear,190,2013-01-18 15:16:00
9:35 AM,37.4,26.6,65,30.43,10.0,South,9.2,-,N/A,,Clear,190,2013-01-18 15:35:00
9:55 AM,41.0,28.4,61,30.44,10.0,SSW,9.2,-,N/A,,Clear,200,2013-01-18 15:55:00
10:35 AM,46.4,28.4,50,30.42,10.0,SSW,11.5,-,N/A,,Clear,210,2013-01-18 16:35:00
10:55 AM,46.4,28.4,50,30.42,10.0,SSW,12.7,17.3,N/A,,Clear,200,2013-01-18 16:55:00
11:15 AM,48.2,28.4,46,30.41,10.0,SSW,13.8,-,N/A,,Clear,210,2013-01-18 17:15:00
12:15 PM,51.8,28.4,41,30.36,10.0,SW,16.1,19.6,N/A,,Clear,230,2013-01-18 18:15:00
12:55 PM,53.6,26.6,35,30.33,10.0,SW,17.3,21.9,N/A,,Clear,220,2013-01-18 18:55:00
1:15 PM,53.6,28.4,38,30.32,10.0,SSW,12.7,19.6,N/A,,Clear,210,2013-01-18 19:15:00
1:55 PM,55.4,26.6,33,30.31,10.0,SW,17.3,-,N/A,,Clear,220,2013-01-18 19:55:00
2:35 PM,55.4,26.6,33,30.29,10.0,SSW,12.7,-,N/A,,Clear,210,2013-01-18 20:35:00
2:56 PM,55.4,26.6,33,30.28,10.0,SSW,13.8,19.6,N/A,,Clear,210,2013-01-18 20:56:00
3:15 PM,55.4,24.8,31,30.28,10.0,SSW,13.8,-,N/A,,Clear,210,2013-01-18 21:15:00
4:15 PM,53.6,24.8,33,30.27,10.0,SSW,16.1,-,N/A,,Clear,200,2013-01-18 22:15:00
4:35 PM,53.6,24.8,33,30.27,10.0,SSW,12.7,-,N/A,,Clear,200,2013-01-18 22:35:00
5:15 PM,50.0,26.6,40,30.26,10.0,South,12.7,-,N/A,,Clear,190,2013-01-18 23:15:00
5:35 PM,48.2,26.6,43,30.26,10.0,South,9.2,-,N/A,,Clear,190,2013-01-18 23:35:00
5:55 PM,46.4,26.6,46,30.25,10.0,South,10.4,-,N/A,,Clear,190,2013-01-18 23:55:00
6:16 PM,46.4,26.6,46,30.24,10.0,South,10.4,-,N/A,,Clear,190,2013-01-19 00:16:00
6:55 PM,44.6,26.6,49,30.23,10.0,South,9.2,-,N/A,,Clear,190,2013-01-19 00:55:00
7:15 PM,44.6,26.6,49,30.23,10.0,South,8.1,-,N/A,,Clear,180,2013-01-19 01:15:00
7:16 PM,44.6,26.6,49,30.23,10.0,South,8.1,-,N/A,,Clear,180,2013-01-19 01:16:00
7:35 PM,44.6,26.6,49,30.23,10.0,South,9.2,-,N/A,,Clear,190,2013-01-19 01:35:00
7:55 PM,42.8,26.6,53,30.23,10.0,South,8.1,-,N/A,,Clear,190,2013-01-19 01:55:00
8:35 PM,42.8,26.6,53,30.22,10.0,South,10.4,-,N/A,,Clear,190,2013-01-19 02:35:00
8:55 PM,44.6,26.6,49,30.22,10.0,South,9.2,-,N/A,,Clear,190,2013-01-19 02:55:00
9:55 PM,44.6,26.6,49,30.21,10.0,South,13.8,-,N/A,,Clear,190,2013-01-19 03:55:00
10:35 PM,42.8,24.8,49,30.20,10.0,South,9.2,-,N/A,,Clear,190,2013-01-19 04:35:00
10:55 PM,42.8,24.8,49,30.20,10.0,SSW,8.1,-,N/A,,Clear,200,2013-01-19 04:55:00
11:15 PM,42.8,24.8,49,30.20,10.0,SSW,6.9,-,N/A,,Clear,200,2013-01-19 05:15:00
11:36 PM,42.8,24.8,49,30.20,10.0,SSW,8.1,-,N/A,,Clear,200,2013-01-19 05:36:00
11:55 PM,42.8,24.8,49,30.20,10.0,SSW,8.1,-,N/A,,Clear,200,2013-01-19 05:55:00